GEFSNGP_500_meanwind_228.txt.gz
Wind_Speed
40 40 39 40 41 42 44 44 44 42 41 39 39 39 39 39 38 37 38 37 38 38 39 39 39 40 40 41 41 42 42 43 43 44 45 45 46 46 47 48 49 49 50 50
40 41 41 41 41 41 42 43 43 42 41 39 39 38 39 39 39 38 38 38 38 39 39 39 39 39 39 40 41 42 42 43 44 44 45 45 46 46 47 48 49 49 50 50
39 40 41 42 40 40 40 40 41 41 39 38 38 38 39 40 40 40 40 39 40 40 40 40 40 40 40 40 41 42 42 43 43 44 45 45 46 46 47 48 48 49 50 50
37 38 40 39 39 39 38 38 38 38 37 37 37 38 39 39 40 41 41 41 41 40 40 39 39 39 39 40 40 40 41 42 43 44 45 46 47 47 48 48 48 49 49 50
35 36 37 37 36 37 37 35 35 36 36 36 36 37 37 38 39 39 40 40 39 39 39 38 39 39 39 39 40 41 41 43 43 44 45 45 46 47 47 48 48 49 49 49
35 35 36 35 35 35 36 35 34 35 35 35 35 35 35 37 38 38 38 39 39 38 39 39 39 39 39 40 40 41 41 42 43 44 44 45 45 46 46 47 47 48 48 47
33 34 34 34 34 34 34 35 35 35 35 34 35 35 34 35 36 37 37 37 37 37 38 38 39 40 40 40 40 41 41 42 42 43 43 44 44 45 45 45 45 45 45 46
31 32 32 32 32 33 33 34 35 35 35 35 35 35 35 35 35 35 36 36 36 36 37 38 38 39 40 40 40 41 41 41 41 42 42 43 43 43 43 43 43 43 44 44
31 31 31 31 32 33 33 34 34 34 35 35 35 35 35 35 35 34 35 35 36 36 37 38 39 39 40 40 40 40 40 40 40 40 41 41 41 41 41 41 41 42 42 43
28 29 31 31 31 32 33 33 33 33 34 34 34 35 36 36 36 36 36 36 37 37 38 38 38 38 38 38 38 38 38 38 39 39 39 39 39 39 39 40 41 41 41 41
26 27 28 29 30 31 31 31 31 32 33 33 33 33 34 35 35 36 36 36 36 36 36 36 36 36 36 37 37 37 37 37 37 37 37 37 38 38 39 39 40 39 39 40
25 25 26 26 28 28 29 29 29 30 30 30 31 31 32 32 33 33 34 34 35 35 34 35 35 35 36 36 35 35 35 35 35 36 36 37 37 37 38 38 38 38 39 39
24 25 25 25 26 26 27 27 27 28 29 30 30 31 32 32 32 33 33 33 33 34 34 34 34 35 35 34 34 34 34 34 34 35 35 36 36 37 37 37 38 38 39 39
24 24 25 25 25 26 27 27 27 28 29 30 31 31 31 31 32 32 33 33 33 33 33 33 34 34 34 33 33 33 33 33 34 34 34 35 35 36 37 37 37 38 38 37
22 22 23 23 24 25 26 26 27 28 28 29 29 29 29 29 30 31 32 32 32 32 32 33 33 33 32 32 32 32 33 33 34 34 34 35 35 35 36 36 36 37 36 36
21 22 22 22 23 23 23 24 25 25 26 27 27 28 28 29 29 30 31 31 31 31 31 32 31 32 31 31 32 32 33 33 34 34 35 35 35 36 36 36 36 35 35 35
20 21 21 21 22 22 23 23 24 24 25 25 26 26 27 28 29 29 28 29 30 30 30 30 30 30 31 31 32 32 33 33 33 34 34 34 35 35 35 35 34 34 34 34
19 20 20 20 21 22 22 23 23 24 24 24 24 24 25 26 26 26 27 28 29 29 29 29 29 30 30 31 31 32 32 32 32 33 33 34 34 34 34 33 33 32 33 33
18 18 18 19 20 20 22 22 23 23 23 24 24 24 24 24 24 25 26 27 28 28 29 29 29 29 29 30 30 30 30 31 31 32 33 33 33 33 32 31 31 30 31 31
18 17 18 18 19 20 20 21 22 23 23 23 23 23 23 24 24 25 25 26 26 27 27 28 28 28 28 28 29 29 30 30 30 31 31 31 31 30 30 30 29 29 29 29
17 17 17 18 19 19 20 20 21 21 21 22 22 22 23 23 23 24 24 25 25 25 26 26 26 26 27 27 27 27 28 28 29 29 29 29 29 29 28 28 28 27 27 26
17 18 18 18 18 19 19 20 20 19 20 20 21 21 22 22 22 23 23 24 24 25 25 25 25 25 25 25 25 26 26 27 27 27 28 28 28 27 27 26 26 26 25 24
17 18 18 19 19 19 19 19 19 19 19 19 19 19 19 20 20 21 21 22 23 23 24 24 24 25 25 25 25 25 25 25 26 26 26 26 26 26 25 25 25 24 23 22
17 17 18 18 19 19 18 18 19 19 19 18 18 19 19 20 20 21 21 22 22 23 23 23 24 24 24 24 24 24 25 25 25 25 24 24 24 24 23 23 22 22 21 20
16 16 17 18 18 18 18 18 18 19 19 19 19 20 20 20 21 21 22 22 22 22 22 22 22 23 23 23 23 23 23 23 22 22 22 22 21 21 21 20 20 19 18 18
16 16 16 16 16 17 17 17 18 18 19 19 19 20 20 20 21 21 21 22 22 21 21 21 21 21 22 22 21 21 20 19 19 19 19 19 19 19 18 18 17 17 16 16
15 15 15 15 15 16 16 17 18 18 19 19 20 20 20 20 20 21 21 21 21 20 20 20 20 20 20 19 19 18 17 17 17 17 17 17 17 16 16 16 16 16 15 15

GEFSNGP_500_meanwind_234.txt.gz
Wind_Speed
39 39 39 40 40 42 44 45 45 44 43 43 43 42 40 40 40 39 39 39 40 40 41 41 41 42 42 42 42 43 43 44 45 46 47 47 48 48 47 47 47 48 48 48
38 40 39 39 40 41 42 43 43 43 43 42 42 42 40 39 39 39 38 38 38 39 40 40 40 41 42 42 42 42 43 44 45 46 46 47 47 47 47 47 47 47 47 48
36 39 41 41 39 39 39 40 41 42 40 40 40 39 39 38 38 38 38 37 37 38 39 39 40 40 41 41 42 42 43 44 45 46 46 46 46 46 46 47 47 47 48 49
34 35 38 38 38 38 38 38 39 40 39 39 40 39 39 39 39 38 38 38 38 38 38 39 40 40 40 41 42 43 43 44 45 45 46 46 46 47 47 47 48 48 48 48
33 33 35 35 35 36 37 37 37 38 39 39 40 40 40 39 40 40 39 39 39 39 39 40 41 41 41 41 42 42 43 44 45 46 46 45 45 46 47 47 47 47 48 48
31 33 33 33 32 33 35 36 36 37 37 38 39 40 39 39 40 41 40 40 40 40 41 41 42 42 43 43 43 43 44 44 45 45 45 45 45 46 46 47 47 47 47 47
30 31 32 32 31 32 33 34 35 36 37 37 37 38 38 38 39 40 41 41 41 41 42 42 42 42 42 42 42 42 43 43 43 43 43 44 44 45 46 46 46 46 46 46
30 31 31 30 30 31 31 32 33 34 35 36 36 36 37 37 38 39 40 41 41 41 41 41 42 42 42 42 42 42 42 42 42 42 42 43 44 44 43 43 44 44 44 44
30 30 30 29 29 30 31 31 32 33 34 35 35 36 36 37 38 38 39 40 40 41 41 41 41 41 42 42 42 41 41 41 41 41 41 41 42 41 42 42 42 43 42 42
29 29 29 29 30 31 31 32 32 33 33 34 35 35 36 37 37 37 37 38 39 40 40 40 40 40 40 40 40 39 40 40 40 40 40 40 40 40 40 41 41 41 42 42
27 28 30 31 31 32 33 33 32 32 32 33 34 34 34 34 34 34 35 36 36 37 38 38 37 38 38 38 38 38 38 38 38 38 38 38 38 38 38 39 39 40 40 40
26 27 28 28 29 29 30 30 31 30 30 31 32 32 31 31 32 32 33 33 34 35 35 35 36 36 36 36 37 36 36 36 36 36 36 36 36 36 37 37 37 38 39 39
26 26 27 27 27 27 27 28 28 29 30 30 30 30 30 30 30 30 31 31 32 33 34 34 34 35 35 35 35 35 35 35 34 34 34 35 34 34 35 36 37 38 38 38
26 26 26 26 26 26 26 27 27 28 29 29 30 31 31 31 30 30 30 31 32 32 33 33 33 33 33 34 34 34 34 34 33 33 33 33 33 34 35 36 36 37 38 38
24 25 25 25 25 25 25 25 25 26 27 28 28 29 30 31 31 31 31 31 30 31 32 32 32 33 33 33 33 33 33 33 33 33 33 33 33 34 35 35 36 36 37 38
22 23 23 24 24 24 24 23 23 24 25 26 27 28 28 29 30 30 30 30 30 30 31 31 32 33 33 33 33 33 33 33 33 33 33 33 34 34 35 35 35 36 36 36
20 21 22 23 23 23 23 23 23 23 24 25 25 26 27 28 29 29 29 30 30 30 31 31 31 32 32 32 32 32 32 32 33 33 33 33 34 34 34 34 35 35 35 35
18 19 20 22 22 23 23 23 23 24 23 24 25 26 26 27 28 28 28 28 28 29 29 29 30 30 31 31 32 32 31 32 32 32 32 32 32 33 33 33 34 34 34 34
19 19 19 20 21 22 23 23 23 23 24 24 24 25 25 25 26 26 27 27 28 28 28 28 28 29 30 30 30 31 30 31 31 31 31 31 32 32 32 33 33 33 33 32
19 19 19 20 21 21 22 21 22 22 23 23 23 24 24 24 24 24 25 26 26 26 27 27 27 28 28 28 28 29 29 29 29 30 30 31 31 31 32 32 32 32 31 31
19 19 19 20 20 21 21 21 21 21 22 22 22 22 22 23 23 24 24 24 24 24 25 25 26 26 26 27 27 27 27 28 29 29 29 29 30 30 29 29 29 28 28 28
19 19 19 19 20 20 20 21 21 21 21 21 21 21 22 22 23 23 23 24 24 24 24 25 25 26 26 26 26 26 27 27 27 27 27 27 27 27 26 26 26 26 26 26
19 20 20 20 20 20 21 21 21 21 20 20 20 20 21 21 22 22 23 23 24 24 24 25 25 25 25 25 25 25 25 25 25 25 25 25 25 24 24 24 24 25 25 25
19 19 19 20 21 21 21 21 21 21 21 21 21 21 21 21 21 22 22 23 23 23 23 24 24 24 24 24 24 24 24 23 23 24 23 23 22 22 22 22 23 23 23 23
18 18 18 18 19 20 21 21 21 21 21 21 21 21 21 22 22 22 22 22 22 22 22 23 23 23 23 23 23 23 23 22 22 22 21 21 21 21 21 21 21 21 21 21
17 17 17 18 18 19 19 20 21 21 21 21 21 21 21 21 22 22 22 22 22 22 22 22 23 23 22 22 22 22 21 21 20 20 20 20 20 20 20 20 20 20 20 20
17 17 17 17 17 17 17 17 18 18 19 19 20 20 21 21 21 21 21 22 22 22 22 22 22 21 21 21 20 20 19 19 19 19 19 19 19 19 19 19 19 19 19 18

GEFSNGP_500_meanwind_240.txt.gz
Wind_Speed
33 33 34 36 37 38 39 39 40 38 38 36 36 36 36 36 37 37 38 38 38 38 39 40 40 40 40 40 41 41 41 41 41 42 44 44 45 46 47 48 49 49 49 50
34 33 33 34 36 37 38 39 40 39 38 36 37 37 36 36 36 36 36 37 37 37 38 39 40 40 40 41 41 41 42 42 43 43 44 44 45 46 48 48 49 49 49 49
33 32 33 35 34 34 36 36 37 38 37 38 38 37 36 36 35 35 36 36 36 37 37 38 39 40 40 41 41 42 42 43 43 44 44 44 46 47 47 48 48 47 48 49
33 34 34 34 34 35 35 36 37 36 36 36 38 38 37 37 36 36 36 36 36 37 37 37 38 39 40 41 42 42 43 43 44 44 45 45 45 45 45 46 47 47 48 48
31 34 34 34 34 34 34 35 36 36 36 36 36 38 38 37 37 37 37 36 36 37 37 37 37 38 39 40 41 42 42 43 44 44 44 45 45 45 45 46 46 47 47 47
30 31 31 31 31 32 33 34 34 35 35 35 36 37 37 36 37 38 37 37 36 36 36 37 36 37 37 39 40 41 42 43 43 44 45 45 45 45 45 46 46 46 46 46
31 30 29 29 29 30 31 32 32 32 33 34 35 36 37 37 37 38 37 37 37 37 37 37 37 37 38 38 39 40 41 42 42 43 44 44 45 45 45 46 45 45 45 45
31 30 28 27 27 29 30 30 31 31 31 31 33 34 35 36 36 36 36 37 37 37 37 37 38 38 38 39 39 40 41 42 43 43 44 44 44 44 45 45 45 44 44 44
29 28 26 26 26 27 28 29 30 30 30 31 32 33 33 34 35 36 36 36 37 38 38 38 39 39 39 39 40 40 41 42 42 41 42 43 43 43 43 43 43 42 41 41
26 26 26 25 25 26 26 27 28 29 30 30 31 32 33 34 35 36 36 37 38 38 38 39 39 39 39 38 39 40 40 40 40 40 41 41 41 41 41 41 41 40 39 40
23 25 26 26 26 26 26 27 27 28 29 30 31 32 33 34 35 36 36 37 37 38 39 39 39 38 38 38 38 38 39 39 39 39 39 39 39 39 39 39 39 38 38 39
21 23 24 25 26 26 27 28 28 28 29 30 31 31 32 32 33 34 35 36 36 36 37 37 37 37 37 37 37 37 37 37 37 37 38 38 38 38 38 38 38 38 39 39
20 21 23 24 25 26 27 28 29 29 29 29 30 30 30 30 31 32 33 34 34 34 34 35 35 35 36 36 36 36 36 36 35 36 36 37 37 36 36 37 38 38 38 37
20 21 21 23 24 26 27 27 28 29 29 29 29 30 30 29 29 30 31 31 32 32 33 34 34 34 34 34 34 34 34 34 34 34 35 35 35 35 35 35 36 36 36 36
20 20 21 21 22 23 24 25 26 27 27 28 28 28 29 29 29 29 29 30 30 31 32 33 33 33 32 32 32 32 33 33 33 34 34 34 34 34 34 34 34 34 34 34
20 20 20 20 20 20 21 22 23 24 25 26 26 26 26 27 27 27 28 28 29 29 30 30 30 30 31 31 31 32 32 32 33 33 33 33 33 33 32 32 32 33 32 32
17 18 18 18 19 20 20 21 22 24 24 24 25 25 26 26 25 25 25 26 26 27 27 28 28 29 29 30 30 30 31 31 31 31 31 31 31 30 30 31 30 30 30 30
17 17 17 17 19 20 20 21 21 23 23 23 23 24 24 25 25 24 24 24 25 25 26 27 28 28 28 29 29 29 29 29 29 29 29 29 29 29 29 29 28 28 29 29
16 16 17 18 19 19 20 20 20 21 22 23 23 24 24 24 24 25 25 25 26 26 26 27 28 28 28 28 27 27 28 28 28 29 29 29 28 29 29 28 28 28 29 30
17 18 18 18 19 19 19 20 21 21 21 22 23 23 23 23 23 24 24 25 25 25 25 26 26 27 27 27 27 26 26 26 27 27 27 27 27 28 28 28 28 29 30 30
18 18 18 19 19 19 19 20 20 20 21 21 22 23 23 22 23 23 24 24 24 24 24 25 25 26 26 26 26 26 26 26 26 26 26 26 27 27 27 27 27 28 29 29
19 19 19 19 19 19 19 19 20 20 20 21 21 22 23 22 22 22 22 23 23 24 24 24 24 24 24 24 25 25 26 26 26 26 26 26 26 26 26 26 27 27 27 27
18 18 19 19 18 19 19 19 20 20 20 20 20 21 22 22 22 21 22 22 23 23 23 23 23 23 23 23 24 24 25 25 25 25 24 24 24 24 25 25 25 25 25 25
17 18 18 18 19 19 19 20 20 20 21 21 21 21 21 21 21 21 22 22 22 22 22 22 22 23 23 23 22 23 23 23 23 23 23 23 23 23 23 23 23 23 23 23
17 17 17 18 18 18 19 19 20 20 20 20 20 20 20 21 21 21 21 21 22 22 22 23 22 22 22 22 22 22 22 22 22 22 22 22 22 22 22 22 22 22 21 21
17 17 17 17 17 17 18 17 18 18 18 19 19 20 20 20 21 21 21 21 22 22 22 22 22 21 22 22 22 22 22 21 21 21 21 21 21 21 21 21 21 21 20 20
17 17 17 16 16 16 16 16 16 16 17 18 18 19 19 19 20 20 20 20 20 20 20 20 20 20 21 21 21 21 21 21 21 21 21 21 21 20 20 20 20 20 20 20

GEFSNGP_500_meanwind_246.txt.gz
Wind_Speed
31 32 33 34 36 36 37 37 38 38 38 36 35 35 35 35 36 37 38 39 40 40 40 41 42 43 44 45 45 46 46 45 45 46 46 46 46 46 46 46 47 47 47 48
31 33 34 34 35 36 36 37 37 37 37 36 36 36 35 36 36 37 38 39 39 40 40 40 41 42 43 44 44 44 45 45 46 46 46 46 46 46 46 46 46 46 47 47
32 33 34 35 34 35 36 37 37 37 36 37 37 36 37 38 38 37 38 39 39 40 40 41 41 42 42 42 43 43 44 45 45 46 46 46 46 47 46 46 46 47 48 48
32 33 35 34 34 34 36 37 38 38 37 37 37 37 37 38 39 38 38 39 40 41 41 41 41 41 42 42 42 43 44 44 45 45 45 46 46 46 47 47 48 48 48 49
30 33 34 34 33 33 34 35 37 38 38 38 39 39 39 39 40 40 39 39 40 41 41 41 41 41 41 41 42 42 43 44 44 45 45 46 46 46 46 47 48 48 48 48
27 30 33 33 33 33 34 35 35 36 36 37 39 40 39 39 40 40 40 39 40 41 41 41 41 41 41 42 42 42 42 43 43 44 45 45 46 46 46 47 47 48 47 47
26 29 31 32 33 33 34 35 35 35 36 36 37 38 38 38 39 40 40 40 40 40 40 40 41 41 41 40 41 42 42 43 44 45 45 45 46 46 47 47 47 47 47 47
26 28 28 29 30 31 32 33 34 34 35 35 36 37 37 36 36 37 38 39 39 39 40 40 40 40 40 40 41 41 42 43 44 45 45 46 46 46 46 46 46 46 47 47
27 28 28 28 29 30 31 32 33 34 34 35 35 36 36 36 35 36 37 38 39 39 40 40 40 40 40 41 41 42 42 43 44 45 46 46 45 46 46 46 46 46 46 46
26 26 27 28 30 30 31 32 33 34 34 34 34 34 35 36 36 37 37 37 37 38 39 40 40 41 41 42 42 43 43 43 43 44 45 45 45 45 45 45 45 45 45 44
25 25 25 26 27 28 29 29 30 32 33 33 33 34 35 35 36 36 36 36 36 37 38 39 40 41 41 41 41 41 42 42 42 42 43 43 43 44 44 44 44 43 42 40
23 24 25 25 26 27 28 28 29 30 32 32 33 34 35 35 35 36 36 36 36 36 36 37 38 39 40 40 40 40 40 40 41 41 41 41 41 41 41 41 41 41 39 38
21 23 25 26 26 26 26 28 28 28 29 31 32 33 34 34 35 35 36 36 37 37 37 37 37 37 38 38 39 39 39 40 40 40 40 40 39 38 38 39 39 39 38 38
20 21 23 25 25 25 26 27 27 27 28 29 31 32 33 34 34 35 35 36 36 37 37 37 37 37 38 38 38 38 38 38 38 37 37 37 36 36 36 37 37 37 37 38
18 19 20 22 23 24 25 26 27 27 28 29 29 30 31 32 33 33 33 34 35 35 36 36 36 36 36 36 36 36 36 36 35 35 35 35 35 34 34 34 34 35 36 36
19 19 19 20 21 22 23 24 25 26 27 28 28 29 29 30 31 30 31 31 31 32 32 32 33 33 34 35 34 34 33 33 33 33 33 33 32 32 32 32 32 33 33 33
20 20 19 19 20 21 21 23 24 24 25 26 26 27 28 28 29 29 29 29 28 28 28 29 30 30 31 32 32 31 31 31 31 31 31 31 30 30 30 31 31 31 31 31
19 19 19 19 20 21 21 21 22 22 23 24 25 26 27 27 28 27 27 27 27 27 28 28 28 28 27 28 28 27 28 28 29 29 29 29 29 29 29 30 30 30 30 30
18 19 19 19 19 20 20 21 21 21 22 22 23 24 24 25 26 26 26 27 27 27 27 27 26 27 27 26 26 26 26 26 26 27 28 28 28 28 28 28 28 28 28 29
18 19 19 20 20 20 20 21 21 22 22 22 22 22 23 23 24 24 25 26 27 27 27 27 26 26 26 26 26 26 26 26 26 25 26 26 27 27 27 27 27 27 27 28
18 19 19 20 20 20 21 21 22 22 23 23 23 23 23 23 23 23 24 25 26 26 27 27 26 26 25 25 25 25 25 25 25 25 25 26 26 26 26 26 26 27 27 27
18 19 20 20 21 21 21 22 22 22 22 23 23 23 23 23 23 23 24 24 24 24 25 25 25 25 25 25 25 24 24 24 24 25 25 25 25 25 25 25 26 26 26 26
19 19 19 20 20 21 21 21 21 22 21 21 22 22 23 22 22 23 23 23 22 23 23 23 24 24 24 25 24 24 24 24 24 24 24 24 24 24 24 24 24 25 25 26
19 20 19 20 20 20 20 20 21 21 21 21 21 21 22 22 23 23 23 23 22 22 23 23 23 23 24 24 23 23 24 24 24 23 23 23 23 23 24 24 24 25 25 26
19 19 20 20 20 20 20 19 19 20 20 21 21 21 21 22 22 22 23 22 22 22 22 23 22 22 22 22 22 22 22 23 23 23 22 22 23 23 24 24 24 24 24 23
19 19 19 20 20 19 19 18 18 19 19 19 20 20 20 20 20 21 21 21 21 21 21 21 21 21 21 21 21 21 21 21 21 21 22 22 22 23 23 23 23 23 22 21
19 19 19 20 19 19 19 18 18 18 18 18 18 19 19 19 19 19 19 19 19 19 20 20 20 20 20 20 20 20 20 21 21 21 21 21 21 21 21 21 21 21 21 20

GEFSNGP_500_meanwind_252.txt.gz
Wind_Speed
24 26 27 29 29 30 32 33 34 34 33 33 33 34 35 37 37 38 38 40 41 42 42 43 43 44 45 44 44 44 45 45 45 46 46 46 47 47 47 47 47 47 47 48
24 24 26 28 29 30 31 32 33 32 33 33 33 34 34 36 37 37 37 39 40 41 41 42 43 43 44 44 44 44 44 44 44 44 44 45 45 46 46 47 47 48 48 48
23 24 25 26 27 29 31 32 33 32 32 33 33 33 34 35 36 36 37 38 39 40 41 41 42 42 43 43 44 44 44 44 43 44 44 45 46 46 47 47 48 48 48 49
23 24 26 26 26 28 30 31 32 33 32 32 32 33 35 35 36 37 37 37 38 39 40 41 42 42 43 44 44 44 44 44 44 44 45 45 46 46 47 48 48 49 49 49
23 25 26 26 25 26 28 29 31 33 34 33 33 33 34 35 37 37 38 38 39 39 40 42 43 43 44 44 45 45 45 45 45 45 46 46 46 46 47 48 48 48 49 49
24 25 26 26 26 26 27 29 29 30 32 34 34 34 34 34 35 37 38 39 40 40 41 42 43 44 44 44 45 45 45 45 46 46 46 47 46 47 47 47 48 48 49 49
24 26 26 26 27 27 28 29 29 29 31 32 33 34 34 34 35 37 38 39 40 41 41 41 42 43 43 43 44 44 45 45 45 45 45 46 46 46 46 46 47 48 48 49
22 24 24 25 27 28 28 29 29 30 30 31 32 33 34 35 36 37 38 39 40 40 40 40 41 41 42 42 43 43 44 44 44 44 44 45 46 46 45 46 46 47 47 47
23 23 23 24 26 27 28 29 29 30 30 31 31 32 33 34 34 35 36 38 39 40 40 39 40 41 41 42 42 42 42 42 43 43 43 43 44 44 45 46 46 46 46 45
22 22 23 23 24 25 26 27 29 30 31 32 31 31 32 33 33 34 35 36 37 38 39 40 40 40 41 41 41 41 42 42 42 43 43 44 44 44 45 45 45 45 44 44
20 20 21 22 23 24 25 26 27 28 29 30 31 30 31 32 33 33 34 35 36 38 39 39 40 40 40 40 41 42 42 42 42 42 42 43 43 44 44 45 45 44 43 42
18 19 20 20 21 23 24 24 24 25 26 27 29 30 31 32 33 33 34 35 36 37 37 37 38 39 39 39 40 40 40 41 41 41 42 42 42 42 42 42 42 42 42 41
18 18 19 19 20 21 23 23 24 25 26 26 27 29 30 31 32 33 33 34 35 36 37 37 37 37 37 38 39 39 39 39 39 39 39 40 40 41 41 40 40 40 40 40
18 18 18 19 19 21 22 23 24 24 26 26 27 28 29 29 30 31 32 32 33 35 36 36 36 36 36 37 37 38 38 38 38 38 38 38 38 38 39 38 38 38 37 37
17 18 19 19 20 21 22 22 23 24 25 26 26 27 27 28 29 29 30 31 32 33 34 35 36 36 37 37 37 37 37 37 37 37 37 37 37 37 36 36 35 35 35 35
17 18 19 20 20 20 21 22 22 23 24 24 25 26 26 27 27 28 28 29 30 31 32 33 34 35 36 36 36 36 36 36 36 36 36 35 35 34 34 33 33 33 33 33
16 17 18 19 19 20 20 20 21 22 22 23 24 25 26 26 26 27 27 28 29 29 30 30 30 31 32 33 34 34 34 34 34 34 33 33 32 31 31 31 31 31 31 32
15 15 16 17 18 19 19 20 20 21 21 22 22 22 24 25 26 27 27 28 28 28 28 28 28 28 29 30 30 30 30 31 31 31 30 30 29 29 28 28 29 29 30 30
15 15 15 16 17 18 18 18 19 19 20 20 21 21 22 23 25 26 27 27 27 27 27 26 26 27 26 27 27 28 28 29 29 29 29 28 28 28 28 27 27 28 28 28
15 15 15 16 17 17 17 18 19 20 20 20 21 22 22 23 24 25 25 25 26 26 26 25 25 25 26 26 26 26 27 27 27 27 27 27 27 27 27 27 27 27 27 27
16 16 17 17 18 18 18 19 19 20 20 20 21 21 22 23 23 23 23 23 23 24 24 24 24 25 25 25 26 26 26 26 25 25 25 25 26 26 26 26 26 26 26 26
15 16 17 17 18 18 19 19 19 19 20 20 21 21 21 22 22 22 22 22 22 22 23 23 23 24 24 25 25 24 24 23 23 23 24 24 24 24 24 24 25 25 25 25
15 16 17 17 17 17 17 18 18 18 19 20 20 21 21 21 21 21 22 21 21 21 21 21 22 22 22 23 23 23 23 23 23 23 23 23 23 23 23 23 23 24 24 24
15 15 16 16 16 16 16 16 17 17 18 18 19 19 19 20 20 20 21 21 20 20 20 20 20 21 21 21 21 21 21 21 20 21 21 21 21 22 22 22 23 23 23 23
15 16 16 16 16 16 16 16 17 17 17 17 17 17 17 18 18 19 19 19 20 20 19 19 19 18 18 18 19 19 19 18 19 19 19 19 20 20 21 21 21 20 20 20
16 16 16 16 16 16 16 16 16 16 16 16 16 16 17 16 17 17 18 19 19 19 18 17 16 17 17 17 17 17 17 17 17 17 18 18 18 19 19 19 19 19 19 19
17 17 17 16 16 16 16 16 16 16 15 15 15 15 15 16 16 16 17 17 17 17 17 16 16 16 16 16 16 16 16 16 16 16 17 17 16 16 16 17 17 18 18 18